SILU-1 (SILKROAD 1) (42903 NORAD) Tracking and Keplerian Element Data

This shows tracking and keplerian element data for the satellite.

Feedback or suggestion? Click here.




ElementValue
Catalog42903
NameSILU-1 (SILKROAD 1)
Epoch Orbit6491
Epoch Day263.32717593
Epoch Year2018
RAAN110.0507
Inclination42.7761
Eccentricity0.0014856
Argument of Perigee258.8467
Mean Anonmoly88.8303
Mean Motion15.76374258
Decay Rate0.00030774
L11 42903U 17021F 18263.32717593 .00030774 00000-0 18986-3 0 9992
L22 42903 42.7761 110.0507 0014856 258.8467 88.8303 15.76374258 64913

Live tracking and technical data element details for SILU-1 (SILKROAD 1) (NORAD 42903). SILU-1 (SILKROAD 1) can be tracked NOW for your location showing map with azimuth and elevation plus other details from your city location.

Track the satellite on the map from your city or location and see movement details for azimuth, elevation, latitude, longitude, range, height, and movement on the map or in text.







IsCatalogInMostPopularTable: catalog: 42903, numindb: 140
Update: records affected: 1



GetName: 42903 SILU-1 (SILKROAD 1)

Hit Count: updated at: Sat, 22 Sep 2018 15:34:35 GMT